Time,TemperatureF,DewpointF,PressureIn,WindDirection,WindDirectionDegrees,WindSpeedMPH,WindSpeedGustMPH,Humidity,HourlyPrecipIn,Conditions,Clouds,dailyrainin,SoftwareType,DateUTC
2013-01-30 00:00:00,60.4,54.9,29.99,NW,315,0.0,0.0,82,0.00,,CLR,0.00,VWS V12.08,2013-01-30 05:00:00,
2013-01-30 00:10:00,60.4,55.3,29.99,NNE,22,0.0,0.0,83,0.00,,CLR,0.00,VWS V12.08,2013-01-30 05:10:00,
2013-01-30 00:15:00,60.4,55.3,29.99,ENE,68,1.3,11.2,83,0.00,,CLR,0.00,VWS V12.08,2013-01-30 05:15:00,
2013-01-30 00:20:00,60.4,55.3,29.99,ESE,112,0.0,0.0,83,0.00,,CLR,0.00,VWS V12.08,2013-01-30 05:20:00,
2013-01-30 00:25:00,60.4,55.3,29.98,WNW,292,0.7,0.7,83,0.00,,CLR,0.00,VWS V12.08,2013-01-30 05:25:00,
2013-01-30 00:30:00,60.4,55.3,29.99,ENE,68,0.0,0.7,83,0.00,,CLR,0.00,VWS V12.08,2013-01-30 05:30:00,
2013-01-30 00:35:00,60.4,55.3,29.99,NNW,338,0.0,0.7,83,0.00,,CLR,0.00,VWS V12.08,2013-01-30 05:35:00,
2013-01-30 00:40:00,60.4,55.3,29.98,NNW,338,0.0,0.0,83,0.00,,CLR,0.00,VWS V12.08,2013-01-30 05:40:00,
2013-01-30 00:45:00,60.6,55.4,29.98,SSW,202,0.0,0.0,83,0.00,,CLR,0.00,VWS V12.08,2013-01-30 05:45:00,
2013-01-30 00:50:00,60.6,55.4,29.98,SSW,202,0.0,0.0,83,0.00,,CLR,0.00,VWS V12.08,2013-01-30 05:50:00,
2013-01-30 00:55:00,60.4,55.3,29.97,WNW,292,0.0,3.4,83,0.00,,CLR,0.00,VWS V12.08,2013-01-30 05:55:00,
2013-01-30 01:01:00,60.6,55.8,29.97,ESE,112,5.1,5.1,84,0.00,,CLR,0.00,VWS V12.08,2013-01-30 06:01:00,
2013-01-30 01:06:00,60.6,55.8,29.96,SSE,158,2.7,5.1,84,0.00,,CLR,0.00,VWS V12.08,2013-01-30 06:06:00,
2013-01-30 01:11:00,60.6,55.8,29.96,ESE,112,3.4,5.1,84,0.00,,CLR,0.00,VWS V12.08,2013-01-30 06:11:00,
2013-01-30 01:16:00,60.6,55.8,29.95,South,180,2.5,5.1,84,0.00,,CLR,0.00,VWS V12.08,2013-01-30 06:16:00,
2013-01-30 01:21:00,60.6,55.8,29.95,SSW,202,0.0,0.0,84,0.00,,CLR,0.00,VWS V12.08,2013-01-30 06:21:00,
2013-01-30 01:26:00,60.8,55.9,29.95,East,90,0.9,1.8,84,0.00,,CLR,0.00,VWS V12.08,2013-01-30 06:26:00,
2013-01-30 01:31:00,61.0,56.1,29.95,ENE,68,0.0,6.3,84,0.00,,CLR,0.00,VWS V12.08,2013-01-30 06:31:00,
2013-01-30 01:36:00,61.0,56.1,29.95,SE,135,0.0,8.3,84,0.00,,CLR,0.00,VWS V12.08,2013-01-30 06:36:00,
2013-01-30 01:41:00,61.0,56.1,29.95,East,90,3.1,6.5,84,0.00,,CLR,0.00,VWS V12.08,2013-01-30 06:41:00,
2013-01-30 01:46:00,61.0,56.1,29.95,SSE,158,2.2,6.5,84,0.00,,CLR,0.00,VWS V12.08,2013-01-30 06:46:00,
2013-01-30 01:51:00,61.0,56.1,29.95,SSE,158,5.6,6.5,84,0.00,,CLR,0.00,VWS V12.08,2013-01-30 06:51:00,
2013-01-30 01:56:00,61.2,56.3,29.95,SSE,158,3.1,6.5,84,0.00,,CLR,0.00,VWS V12.08,2013-01-30 06:56:00,
2013-01-30 02:01:00,61.2,56.3,29.94,SSW,202,7.8,7.8,84,0.02,,CLR,0.02,VWS V12.08,2013-01-30 07:01:00,
2013-01-30 02:06:00,61.3,56.5,29.95,SW,225,4.3,7.8,84,0.02,,CLR,0.02,VWS V12.08,2013-01-30 07:06:00,
2013-01-30 02:11:00,61.3,56.5,29.94,ESE,112,11.2,11.2,84,0.02,,CLR,0.02,VWS V12.08,2013-01-30 07:11:00,
2013-01-30 02:16:00,61.5,56.7,29.95,SE,135,6.5,11.2,84,0.02,,CLR,0.02,VWS V12.08,2013-01-30 07:16:00,
2013-01-30 02:21:00,61.5,56.7,29.94,SSE,158,1.8,1.8,84,0.02,,CLR,0.02,VWS V12.08,2013-01-30 07:21:00,
2013-01-30 02:26:00,61.5,56.7,29.94,SE,135,0.9,4.0,84,0.02,,CLR,0.02,VWS V12.08,2013-01-30 07:26:00,
2013-01-30 02:31:00,61.5,56.7,29.94,South,180,3.1,4.0,84,0.02,,CLR,0.02,VWS V12.08,2013-01-30 07:31:00,
2013-01-30 02:36:00,61.7,56.8,29.93,South,180,9.4,9.4,84,0.02,,CLR,0.02,VWS V12.08,2013-01-30 07:36:00,
2013-01-30 02:41:00,61.7,56.8,29.93,South,180,9.4,9.4,84,0.02,,CLR,0.02,VWS V12.08,2013-01-30 07:41:00,
2013-01-30 02:46:00,61.7,56.8,29.93,South,180,1.3,9.4,84,0.02,,CLR,0.02,VWS V12.08,2013-01-30 07:46:00,
2013-01-30 02:51:00,61.7,56.8,29.93,ENE,68,18.3,18.3,84,0.02,,CLR,0.02,VWS V12.08,2013-01-30 07:51:00,
2013-01-30 02:56:00,61.7,56.8,29.94,SE,135,0.0,18.3,84,0.00,,CLR,0.02,VWS V12.08,2013-01-30 07:56:00,
2013-01-30 03:01:00,61.9,57.0,29.94,NE,45,7.8,7.8,84,0.00,,CLR,0.02,VWS V12.08,2013-01-30 08:01:00,
2013-01-30 03:06:00,62.2,57.3,29.93,SW,225,1.6,9.8,84,0.00,,CLR,0.02,VWS V12.08,2013-01-30 08:06:00,
2013-01-30 03:11:00,62.2,57.0,29.93,SE,135,0.0,9.8,83,0.00,,CLR,0.02,VWS V12.08,2013-01-30 08:11:00,
2013-01-30 03:16:00,62.2,57.0,29.93,SSE,158,9.6,9.8,83,0.00,,CLR,0.02,VWS V12.08,2013-01-30 08:16:00,
2013-01-30 03:21:00,62.2,57.0,29.93,ENE,68,4.7,6.7,83,0.00,,CLR,0.02,VWS V12.08,2013-01-30 08:21:00,
2013-01-30 03:26:00,62.1,56.8,29.92,SSE,158,0.0,6.7,83,0.00,,CLR,0.02,VWS V12.08,2013-01-30 08:26:00,
2013-01-30 03:31:00,62.1,56.8,29.92,SSE,158,8.5,8.5,83,0.00,,CLR,0.02,VWS V12.08,2013-01-30 08:31:00,
2013-01-30 03:36:00,61.9,56.7,29.92,SSE,158,6.0,8.5,83,0.00,,CLR,0.02,VWS V12.08,2013-01-30 08:36:00,
2013-01-30 03:41:00,61.9,56.7,29.91,SSW,202,6.3,6.3,83,0.00,,CLR,0.02,VWS V12.08,2013-01-30 08:41:00,
2013-01-30 03:46:00,61.9,56.7,29.91,East,90,0.0,6.5,83,0.00,,CLR,0.02,VWS V12.08,2013-01-30 08:46:00,
2013-01-30 03:51:00,61.9,56.7,29.91,ENE,68,0.0,6.5,83,0.00,,CLR,0.02,VWS V12.08,2013-01-30 08:51:00,
2013-01-30 03:56:00,61.7,56.5,29.91,SSE,158,2.5,6.5,83,0.00,,CLR,0.02,VWS V12.08,2013-01-30 08:56:00,
2013-01-30 04:01:00,61.7,56.5,29.91,SSE,158,2.5,2.5,83,0.00,,CLR,0.02,VWS V12.08,2013-01-30 09:01:00,
2013-01-30 04:06:00,61.9,56.7,29.91,SE,135,2.2,8.1,83,0.00,,CLR,0.02,VWS V12.08,2013-01-30 09:06:00,
2013-01-30 04:11:00,61.7,56.5,29.91,SSE,158,1.6,8.1,83,0.00,,CLR,0.02,VWS V12.08,2013-01-30 09:11:00,
2013-01-30 04:16:00,61.5,56.3,29.91,SE,135,1.6,8.1,83,0.00,,CLR,0.02,VWS V12.08,2013-01-30 09:16:00,
2013-01-30 04:21:00,61.5,56.7,29.91,SE,135,0.0,6.3,84,0.00,,CLR,0.02,VWS V12.08,2013-01-30 09:21:00,
2013-01-30 04:26:00,61.5,56.7,29.91,West,270,0.0,6.3,84,0.00,,CLR,0.02,VWS V12.08,2013-01-30 09:26:00,
2013-01-30 04:31:00,61.5,56.7,29.91,East,90,0.0,6.3,84,0.00,,CLR,0.02,VWS V12.08,2013-01-30 09:31:00,
2013-01-30 04:37:00,61.5,56.7,29.91,SE,135,4.0,6.3,84,0.00,,CLR,0.02,VWS V12.08,2013-01-30 09:37:00,
2013-01-30 04:42:00,61.5,56.7,29.90,SE,135,4.0,4.0,84,0.00,,CLR,0.02,VWS V12.08,2013-01-30 09:42:00,
2013-01-30 04:47:00,61.0,56.1,29.90,East,90,0.0,4.0,84,0.00,,CLR,0.02,VWS V12.08,2013-01-30 09:47:00,
2013-01-30 04:52:00,60.8,56.3,29.90,South,180,2.2,4.0,85,0.00,,CLR,0.02,VWS V12.08,2013-01-30 09:52:00,
2013-01-30 04:57:00,60.6,56.1,29.89,SSE,158,0.0,4.0,85,0.00,,CLR,0.02,VWS V12.08,2013-01-30 09:57:00,
2013-01-30 05:02:00,60.6,56.1,29.89,SSW,202,0.0,0.0,85,0.00,,CLR,0.02,VWS V12.08,2013-01-30 10:02:00,
2013-01-30 05:07:00,60.4,56.2,29.88,SE,135,0.0,0.0,86,0.02,,CLR,0.04,VWS V12.08,2013-01-30 10:07:00,
2013-01-30 05:12:00,60.4,56.2,29.88,NE,45,0.0,0.0,86,0.02,,CLR,0.04,VWS V12.08,2013-01-30 10:12:00,
2013-01-30 05:17:00,60.4,56.2,29.88,NE,45,0.0,0.0,86,0.02,,CLR,0.04,VWS V12.08,2013-01-30 10:17:00,
2013-01-30 05:22:00,60.4,56.2,29.88,SSE,158,0.0,0.0,86,0.02,,CLR,0.04,VWS V12.08,2013-01-30 10:22:00,
2013-01-30 05:27:00,60.1,55.9,29.88,NNW,338,0.0,0.0,86,0.02,,CLR,0.04,VWS V12.08,2013-01-30 10:27:00,
2013-01-30 05:32:00,60.1,56.2,29.88,North,0,1.1,1.1,87,0.02,,CLR,0.04,VWS V12.08,2013-01-30 10:32:00,
2013-01-30 05:37:00,60.1,56.2,29.88,North,0,0.0,1.1,87,0.02,,CLR,0.04,VWS V12.08,2013-01-30 10:37:00,
2013-01-30 05:42:00,60.1,56.2,29.88,SW,225,0.0,0.0,87,0.02,,CLR,0.04,VWS V12.08,2013-01-30 10:42:00,
2013-01-30 05:47:00,60.1,56.2,29.87,South,180,0.0,0.0,87,0.02,,CLR,0.04,VWS V12.08,2013-01-30 10:47:00,
2013-01-30 05:52:00,60.1,56.2,29.87,ESE,112,0.0,0.0,87,0.04,,CLR,0.06,VWS V12.08,2013-01-30 10:52:00,
2013-01-30 05:57:00,60.3,56.4,29.86,SE,135,0.0,0.0,87,0.04,,CLR,0.06,VWS V12.08,2013-01-30 10:57:00,
2013-01-30 06:02:00,60.4,56.6,29.86,ENE,68,4.0,4.0,87,0.04,,CLR,0.06,VWS V12.08,2013-01-30 11:02:00,
2013-01-30 06:07:00,60.4,56.6,29.86,SSW,202,3.8,4.0,87,0.02,,CLR,0.06,VWS V12.08,2013-01-30 11:07:00,
2013-01-30 06:12:00,60.4,56.6,29.86,SSW,202,3.8,4.0,87,0.02,,CLR,0.06,VWS V12.08,2013-01-30 11:12:00,
2013-01-30 06:17:00,60.4,56.6,29.86,North,0,0.9,4.0,87,0.02,,CLR,0.06,VWS V12.08,2013-01-30 11:17:00,
2013-01-30 06:22:00,60.6,56.7,29.86,NE,45,5.4,5.4,87,0.02,,CLR,0.06,VWS V12.08,2013-01-30 11:22:00,
2013-01-30 06:27:00,60.4,56.6,29.86,ENE,68,3.6,5.4,87,0.02,,CLR,0.06,VWS V12.08,2013-01-30 11:27:00,
2013-01-30 06:32:00,60.6,56.7,29.86,SSE,158,4.3,5.4,87,0.04,,CLR,0.09,VWS V12.08,2013-01-30 11:32:00,
2013-01-30 06:37:00,60.6,56.7,29.85,North,0,0.0,5.4,87,0.04,,CLR,0.09,VWS V12.08,2013-01-30 11:37:00,
2013-01-30 06:42:00,60.6,57.0,29.85,ESE,112,0.0,0.0,88,0.04,,CLR,0.09,VWS V12.08,2013-01-30 11:42:00,
2013-01-30 06:47:00,60.8,57.2,29.85,NW,315,0.0,0.0,88,0.04,,CLR,0.09,VWS V12.08,2013-01-30 11:47:00,
2013-01-30 06:52:00,60.8,57.2,29.85,SSW,202,5.6,5.6,88,0.04,,CLR,0.11,VWS V12.08,2013-01-30 11:52:00,
2013-01-30 06:57:00,61.0,57.4,29.85,SSW,202,0.0,10.3,88,0.04,,CLR,0.11,VWS V12.08,2013-01-30 11:57:00,
2013-01-30 07:02:00,61.0,57.4,29.84,SSW,202,0.7,5.6,88,0.04,,CLR,0.11,VWS V12.08,2013-01-30 12:02:00,
2013-01-30 07:07:00,61.2,57.6,29.84,SSE,158,2.0,8.3,88,0.04,,CLR,0.11,VWS V12.08,2013-01-30 12:07:00,
2013-01-30 07:12:00,61.2,57.6,29.84,ESE,112,0.0,8.3,88,0.04,,CLR,0.11,VWS V12.08,2013-01-30 12:12:00,
2013-01-30 07:17:00,61.2,57.6,29.84,WSW,248,0.0,8.3,88,0.06,,CLR,0.13,VWS V12.08,2013-01-30 12:17:00,
2013-01-30 07:22:00,61.2,57.6,29.84,WSW,248,0.0,0.0,88,0.06,,CLR,0.13,VWS V12.08,2013-01-30 12:22:00,
2013-01-30 07:27:00,61.2,57.6,29.84,ENE,68,0.0,0.9,88,0.09,,CLR,0.15,VWS V12.08,2013-01-30 12:27:00,
2013-01-30 07:32:00,61.2,57.6,29.84,ENE,68,0.0,0.9,88,0.06,,CLR,0.15,VWS V12.08,2013-01-30 12:32:00,
2013-01-30 07:37:00,61.2,57.6,29.84,South,180,0.9,0.9,88,0.06,,CLR,0.15,VWS V12.08,2013-01-30 12:37:00,
2013-01-30 07:42:00,61.2,57.6,29.83,SSE,158,0.2,0.2,88,0.06,,CLR,0.15,VWS V12.08,2013-01-30 12:42:00,
2013-01-30 07:47:00,61.2,57.6,29.84,SSE,158,0.0,0.2,88,0.06,,CLR,0.15,VWS V12.08,2013-01-30 12:47:00,
2013-01-30 07:52:00,61.2,57.6,29.83,SSW,202,8.5,8.5,88,0.06,,CLR,0.17,VWS V12.08,2013-01-30 12:52:00,
2013-01-30 07:57:00,61.2,57.6,29.83,SSW,202,0.2,8.5,88,0.06,,CLR,0.17,VWS V12.08,2013-01-30 12:57:00,
2013-01-30 08:02:00,61.3,57.8,29.83,ENE,68,0.0,0.0,88,0.06,,CLR,0.17,VWS V12.08,2013-01-30 13:02:00,
2013-01-30 08:07:00,61.3,57.8,29.83,SE,135,0.4,0.4,88,0.09,,CLR,0.19,VWS V12.08,2013-01-30 13:07:00,
2013-01-30 08:12:00,61.3,57.8,29.83,SE,135,0.0,4.3,88,0.06,,CLR,0.19,VWS V12.08,2013-01-30 13:12:00,
2013-01-30 08:17:00,61.3,57.8,29.83,South,180,9.8,9.8,88,0.06,,CLR,0.19,VWS V12.08,2013-01-30 13:17:00,
2013-01-30 08:22:00,61.5,57.9,29.83,SW,225,1.3,1.3,88,0.04,,CLR,0.19,VWS V12.08,2013-01-30 13:22:00,
2013-01-30 08:28:00,61.5,57.9,29.82,WSW,248,0.0,1.3,88,0.04,,CLR,0.19,VWS V12.08,2013-01-30 13:28:00,
2013-01-30 08:33:00,61.5,57.9,29.82,SSE,158,3.6,3.6,88,0.04,,CLR,0.19,VWS V12.08,2013-01-30 13:33:00,
2013-01-30 08:38:00,61.5,57.9,29.80,SE,135,0.0,3.6,88,0.04,,CLR,0.19,VWS V12.08,2013-01-30 13:38:00,
2013-01-30 08:43:00,61.7,58.1,29.80,SE,135,2.7,2.7,88,0.04,,CLR,0.19,VWS V12.08,2013-01-30 13:43:00,
2013-01-30 08:48:00,61.9,58.3,29.81,SE,135,0.0,2.7,88,0.04,,CLR,0.19,VWS V12.08,2013-01-30 13:48:00,
2013-01-30 08:53:00,62.1,58.5,29.80,SSE,158,0.0,9.6,88,0.02,,CLR,0.19,VWS V12.08,2013-01-30 13:53:00,
2013-01-30 08:58:00,62.1,58.5,29.80,SE,135,0.0,9.6,88,0.02,,CLR,0.19,VWS V12.08,2013-01-30 13:58:00,
2013-01-30 09:03:00,62.1,58.5,29.80,SE,135,0.0,0.0,88,0.02,,CLR,0.19,VWS V12.08,2013-01-30 14:03:00,
2013-01-30 09:08:00,62.1,58.5,29.80,ESE,112,0.0,0.0,88,0.00,,CLR,0.19,VWS V12.08,2013-01-30 14:08:00,
2013-01-30 09:13:00,62.1,58.5,29.80,ESE,112,0.0,0.0,88,0.00,,CLR,0.19,VWS V12.08,2013-01-30 14:13:00,
2013-01-30 09:18:00,62.1,58.5,29.81,SW,225,3.8,5.8,88,0.00,,CLR,0.19,VWS V12.08,2013-01-30 14:18:00,
2013-01-30 09:23:00,62.1,58.5,29.81,SW,225,3.8,3.8,88,0.00,,CLR,0.19,VWS V12.08,2013-01-30 14:23:00,
2013-01-30 09:28:00,62.4,58.5,29.81,SSW,202,8.3,8.3,87,0.00,,CLR,0.19,VWS V12.08,2013-01-30 14:28:00,
2013-01-30 09:33:00,62.4,58.5,29.81,ENE,68,0.0,8.3,87,0.02,,CLR,0.22,VWS V12.08,2013-01-30 14:33:00,
2013-01-30 09:38:00,62.4,58.5,29.81,NW,315,8.1,11.6,87,0.02,,CLR,0.22,VWS V12.08,2013-01-30 14:38:00,
2013-01-30 09:43:00,62.4,58.5,29.80,SE,135,1.6,8.1,87,0.02,,CLR,0.22,VWS V12.08,2013-01-30 14:43:00,
2013-01-30 09:48:00,62.4,58.5,29.80,SE,135,1.6,8.1,87,0.02,,CLR,0.22,VWS V12.08,2013-01-30 14:48:00,
2013-01-30 09:53:00,62.4,58.5,29.80,South,180,2.2,8.1,87,0.02,,CLR,0.22,VWS V12.08,2013-01-30 14:53:00,
2013-01-30 09:58:00,62.4,58.5,29.80,South,180,0.0,8.1,87,0.04,,CLR,0.24,VWS V12.08,2013-01-30 14:58:00,
2013-01-30 10:03:00,62.6,58.7,29.80,SSE,158,1.6,1.6,87,0.04,,CLR,0.24,VWS V12.08,2013-01-30 15:03:00,
2013-01-30 10:08:00,62.8,58.9,29.78,NE,45,13.0,13.0,87,0.04,,CLR,0.24,VWS V12.08,2013-01-30 15:08:00,
2013-01-30 10:13:00,62.8,58.9,29.78,ESE,112,0.0,13.0,87,0.04,,CLR,0.24,VWS V12.08,2013-01-30 15:13:00,
2013-01-30 10:18:00,62.8,58.5,29.78,East,90,3.6,13.0,86,0.04,,CLR,0.24,VWS V12.08,2013-01-30 15:18:00,
2013-01-30 10:23:00,63.1,58.9,29.78,East,90,0.0,9.6,86,0.04,,CLR,0.24,VWS V12.08,2013-01-30 15:23:00,
2013-01-30 10:28:00,63.1,58.9,29.77,ENE,68,2.7,9.6,86,0.02,,CLR,0.24,VWS V12.08,2013-01-30 15:28:00,
2013-01-30 10:33:00,63.1,58.6,29.77,WSW,248,0.0,9.6,85,0.02,,CLR,0.24,VWS V12.08,2013-01-30 15:33:00,
2013-01-30 10:39:00,63.1,58.6,29.77,ESE,112,0.0,9.6,85,0.02,,CLR,0.24,VWS V12.08,2013-01-30 15:39:00,
2013-01-30 10:44:00,63.1,58.9,29.77,SE,135,0.7,6.3,86,0.02,,CLR,0.24,VWS V12.08,2013-01-30 15:44:00,
2013-01-30 10:49:00,63.1,58.9,29.76,ENE,68,5.6,6.3,86,0.02,,CLR,0.24,VWS V12.08,2013-01-30 15:49:00,
2013-01-30 10:54:00,63.1,58.9,29.76,ENE,68,0.0,6.3,86,0.02,,CLR,0.24,VWS V12.08,2013-01-30 15:54:00,
2013-01-30 10:59:00,63.3,58.7,29.77,NNW,338,4.3,6.3,85,0.00,,CLR,0.24,VWS V12.08,2013-01-30 15:59:00,
2013-01-30 11:04:00,63.5,58.9,29.77,ESE,112,1.3,1.3,85,0.00,,CLR,0.24,VWS V12.08,2013-01-30 16:04:00,
2013-01-30 11:09:00,63.5,58.9,29.76,NE,45,0.0,1.3,85,0.00,,CLR,0.24,VWS V12.08,2013-01-30 16:09:00,
2013-01-30 11:14:00,63.3,58.7,29.76,ESE,112,6.3,6.3,85,0.00,,CLR,0.24,VWS V12.08,2013-01-30 16:14:00,
2013-01-30 11:19:00,63.5,58.6,29.76,SE,135,1.1,7.6,84,0.00,,CLR,0.24,VWS V12.08,2013-01-30 16:19:00,
2013-01-30 11:24:00,63.7,58.8,29.75,SE,135,0.0,1.1,84,0.00,,CLR,0.24,VWS V12.08,2013-01-30 16:24:00,
2013-01-30 11:29:00,63.5,58.6,29.75,SE,135,3.8,6.7,84,0.00,,CLR,0.24,VWS V12.08,2013-01-30 16:29:00,
2013-01-30 11:34:00,63.7,58.8,29.75,NW,315,2.5,10.3,84,0.00,,CLR,0.24,VWS V12.08,2013-01-30 16:34:00,
2013-01-30 11:39:00,63.7,58.8,29.75,NE,45,4.3,10.3,84,0.00,,CLR,0.24,VWS V12.08,2013-01-30 16:39:00,
2013-01-30 11:44:00,64.2,59.0,29.74,ENE,68,0.0,10.3,83,0.00,,CLR,0.24,VWS V12.08,2013-01-30 16:44:00,
2013-01-30 11:49:00,64.4,59.1,29.74,WSW,248,6.7,10.3,83,0.00,,CLR,0.24,VWS V12.08,2013-01-30 16:49:00,
2013-01-30 11:54:00,64.6,59.3,29.74,SSE,158,3.1,10.3,83,0.00,,CLR,0.24,VWS V12.08,2013-01-30 16:54:00,
2013-01-30 11:59:00,64.6,59.0,29.73,ENE,68,0.0,10.3,82,0.00,,CLR,0.24,VWS V12.08,2013-01-30 16:59:00,
2013-01-30 12:04:00,64.8,59.1,29.73,ENE,68,5.8,6.0,82,0.00,,CLR,0.24,VWS V12.08,2013-01-30 17:04:00,
2013-01-30 12:09:00,64.8,59.1,29.73,SW,225,4.5,6.5,82,0.00,,CLR,0.24,VWS V12.08,2013-01-30 17:09:00,
2013-01-30 12:14:00,64.8,58.8,29.72,SW,225,4.0,6.7,81,0.00,,CLR,0.24,VWS V12.08,2013-01-30 17:14:00,
2013-01-30 12:19:00,64.9,59.0,29.72,SW,225,2.7,6.7,81,0.00,,CLR,0.24,VWS V12.08,2013-01-30 17:19:00,
2013-01-30 12:24:00,64.9,59.0,29.71,SSW,202,0.0,5.6,81,0.00,,CLR,0.24,VWS V12.08,2013-01-30 17:24:00,
2013-01-30 12:29:00,64.9,59.0,29.70,East,90,3.1,6.0,81,0.00,,CLR,0.24,VWS V12.08,2013-01-30 17:29:00,
2013-01-30 12:34:00,64.9,59.0,29.70,ESE,112,2.2,12.3,81,0.00,,CLR,0.24,VWS V12.08,2013-01-30 17:34:00,
2013-01-30 12:39:00,64.9,59.0,29.70,South,180,0.0,12.3,81,0.00,,CLR,0.24,VWS V12.08,2013-01-30 17:39:00,
2013-01-30 12:44:00,64.9,58.6,29.69,WNW,292,0.0,11.0,80,0.00,,CLR,0.24,VWS V12.08,2013-01-30 17:44:00,
2013-01-30 12:49:00,64.9,59.0,29.68,ENE,68,0.0,11.0,81,0.00,,CLR,0.24,VWS V12.08,2013-01-30 17:49:00,
2013-01-30 12:50:00,65.3,59.0,29.65,SSW,202,0.0,0.0,80,0.00,,CLR,0.24,VWS V12.08,2013-01-30 17:50:00,
2013-01-30 12:54:00,64.9,59.0,29.69,SE,135,5.6,11.0,81,0.00,,CLR,0.24,VWS V12.08,2013-01-30 17:54:00,
2013-01-30 12:59:00,64.9,59.0,29.68,WSW,248,1.6,11.0,81,0.00,,CLR,0.24,VWS V12.08,2013-01-30 17:59:00,
2013-01-30 13:04:00,65.1,59.2,29.67,SE,135,0.0,6.3,81,0.00,,CLR,0.24,VWS V12.08,2013-01-30 18:04:00,
2013-01-30 13:09:00,65.1,58.8,29.67,WSW,248,0.0,10.3,80,0.00,,CLR,0.24,VWS V12.08,2013-01-30 18:09:00,
2013-01-30 13:14:00,65.1,59.2,29.66,NW,315,0.0,10.3,81,0.00,,CLR,0.24,VWS V12.08,2013-01-30 18:14:00,
2013-01-30 13:19:00,65.3,59.0,29.65,SSE,158,2.9,10.3,80,0.00,,CLR,0.24,VWS V12.08,2013-01-30 18:19:00,
2013-01-30 13:25:00,65.3,59.0,29.65,South,180,0.0,0.0,80,0.00,,CLR,0.24,VWS V12.08,2013-01-30 18:25:00,
2013-01-30 13:30:00,65.5,59.2,29.65,ENE,68,1.3,7.2,80,0.00,,CLR,0.24,VWS V12.08,2013-01-30 18:30:00,
2013-01-30 13:35:00,65.3,59.0,29.65,East,90,1.6,7.2,80,0.00,,CLR,0.24,VWS V12.08,2013-01-30 18:35:00,
2013-01-30 13:40:00,65.3,59.0,29.64,ENE,68,4.3,7.2,80,0.00,,CLR,0.24,VWS V12.08,2013-01-30 18:40:00,
2013-01-30 13:45:00,65.3,59.0,29.64,SSW,202,5.1,10.5,80,0.00,,CLR,0.24,VWS V12.08,2013-01-30 18:45:00,
2013-01-30 13:50:00,65.5,59.5,29.64,SE,135,0.0,10.5,81,0.00,,CLR,0.24,VWS V12.08,2013-01-30 18:50:00,
2013-01-30 13:55:00,65.3,59.0,29.63,NNE,22,0.0,10.5,80,0.00,,CLR,0.24,VWS V12.08,2013-01-30 18:55:00,
2013-01-30 14:00:00,65.5,59.5,29.63,SSW,202,2.9,10.5,81,0.00,,CLR,0.24,VWS V12.08,2013-01-30 19:00:00,
2013-01-30 14:05:00,65.5,59.5,29.63,SSW,202,7.8,10.3,81,0.00,,CLR,0.24,VWS V12.08,2013-01-30 19:05:00,
2013-01-30 14:10:00,65.7,59.3,29.62,NE,45,0.0,10.3,80,0.00,,CLR,0.24,VWS V12.08,2013-01-30 19:10:00,
2013-01-30 14:15:00,65.8,59.5,29.62,NE,45,0.0,10.3,80,0.00,,CLR,0.24,VWS V12.08,2013-01-30 19:15:00,
2013-01-30 14:20:00,65.7,59.7,29.62,South,180,2.7,10.3,81,0.00,,CLR,0.24,VWS V12.08,2013-01-30 19:20:00,
2013-01-30 14:25:00,65.5,59.5,29.62,SE,135,0.0,4.3,81,0.00,,CLR,0.24,VWS V12.08,2013-01-30 19:25:00,
2013-01-30 14:30:00,65.1,59.2,29.62,ESE,112,1.3,6.9,81,0.00,,CLR,0.24,VWS V12.08,2013-01-30 19:30:00,
2013-01-30 14:35:00,64.9,59.3,29.62,ESE,112,4.5,10.1,82,0.00,,CLR,0.24,VWS V12.08,2013-01-30 19:35:00,
2013-01-30 14:40:00,64.9,59.3,29.61,SSW,202,3.6,10.1,82,0.00,,CLR,0.24,VWS V12.08,2013-01-30 19:40:00,
2013-01-30 14:45:00,64.9,59.7,29.60,SE,135,3.4,8.5,83,0.02,,CLR,0.26,VWS V12.08,2013-01-30 19:45:00,
2013-01-30 14:50:00,64.9,59.7,29.59,East,90,0.0,8.5,83,0.02,,CLR,0.26,VWS V12.08,2013-01-30 19:50:00,
2013-01-30 14:55:00,64.9,59.7,29.59,NNE,22,4.5,8.5,83,0.02,,CLR,0.26,VWS V12.08,2013-01-30 19:55:00,
2013-01-30 15:00:00,64.8,59.5,29.60,South,180,0.0,8.5,83,0.02,,CLR,0.26,VWS V12.08,2013-01-30 20:00:00,
2013-01-30 15:05:00,64.6,59.3,29.59,NE,45,0.2,4.5,83,0.02,,CLR,0.26,VWS V12.08,2013-01-30 20:05:00,
2013-01-30 15:10:00,64.4,59.5,29.58,East,90,7.4,9.0,84,0.02,,CLR,0.26,VWS V12.08,2013-01-30 20:10:00,
2013-01-30 15:15:00,64.2,59.3,29.58,East,90,6.5,10.5,84,0.02,,CLR,0.26,VWS V12.08,2013-01-30 20:15:00,
2013-01-30 15:20:00,64.2,59.3,29.58,ESE,112,0.0,10.5,84,0.04,,CLR,0.28,VWS V12.08,2013-01-30 20:20:00,
2013-01-30 15:25:00,64.2,59.6,29.58,WSW,248,4.0,11.9,85,0.04,,CLR,0.28,VWS V12.08,2013-01-30 20:25:00,
2013-01-30 15:30:00,64.2,59.6,29.58,SSW,202,7.2,11.9,85,0.04,,CLR,0.28,VWS V12.08,2013-01-30 20:30:00,
2013-01-30 15:35:00,64.0,59.5,29.57,ENE,68,0.0,11.9,85,0.04,,CLR,0.28,VWS V12.08,2013-01-30 20:35:00,
2013-01-30 15:40:00,64.0,59.5,29.57,NE,45,0.0,11.9,85,0.04,,CLR,0.28,VWS V12.08,2013-01-30 20:40:00,
2013-01-30 15:45:00,64.0,59.5,29.57,East,90,0.0,6.3,85,0.02,,CLR,0.28,VWS V12.08,2013-01-30 20:45:00,
2013-01-30 15:50:00,64.0,59.5,29.56,ESE,112,1.3,6.3,85,0.02,,CLR,0.28,VWS V12.08,2013-01-30 20:50:00,
2013-01-30 15:55:00,63.7,59.1,29.56,East,90,5.6,6.3,85,0.02,,CLR,0.28,VWS V12.08,2013-01-30 20:55:00,
2013-01-30 16:00:00,63.7,59.1,29.55,West,270,0.0,0.0,85,0.02,,CLR,0.28,VWS V12.08,2013-01-30 21:00:00,
2013-01-30 16:05:00,63.5,58.9,29.55,ENE,68,2.0,5.8,85,0.02,,CLR,0.28,VWS V12.08,2013-01-30 21:05:00,
2013-01-30 16:10:00,63.7,59.4,29.54,NE,45,0.7,6.7,86,0.02,,CLR,0.28,VWS V12.08,2013-01-30 21:10:00,
2013-01-30 16:15:00,63.5,59.2,29.54,NE,45,7.6,8.3,86,0.02,,CLR,0.28,VWS V12.08,2013-01-30 21:15:00,
2013-01-30 16:20:00,63.7,59.4,29.53,ENE,68,0.0,0.0,86,0.00,,CLR,0.28,VWS V12.08,2013-01-30 21:20:00,
2013-01-30 16:25:00,63.5,59.2,29.54,East,90,0.0,5.1,86,0.00,,CLR,0.28,VWS V12.08,2013-01-30 21:25:00,
2013-01-30 16:30:00,63.5,59.2,29.54,NNE,22,8.3,9.8,86,0.02,,CLR,0.30,VWS V12.08,2013-01-30 21:30:00,
2013-01-30 16:35:00,63.7,59.4,29.54,ESE,112,4.5,9.8,86,0.02,,CLR,0.30,VWS V12.08,2013-01-30 21:35:00,
2013-01-30 16:40:00,63.7,59.4,29.53,NE,45,0.0,0.0,86,0.02,,CLR,0.30,VWS V12.08,2013-01-30 21:40:00,
2013-01-30 16:45:00,63.7,59.4,29.52,ENE,68,1.6,3.6,86,0.02,,CLR,0.30,VWS V12.08,2013-01-30 21:45:00,
2013-01-30 16:50:00,63.3,58.7,29.52,ENE,68,8.1,8.1,85,0.02,,CLR,0.30,VWS V12.08,2013-01-30 21:50:00,
2013-01-30 16:55:00,63.3,58.7,29.52,NE,45,0.0,8.1,85,0.02,,CLR,0.30,VWS V12.08,2013-01-30 21:55:00,
2013-01-30 17:00:00,63.3,58.7,29.52,NW,315,0.0,8.1,85,0.02,,CLR,0.30,VWS V12.08,2013-01-30 22:00:00,
2013-01-30 17:05:00,63.1,58.9,29.52,WNW,292,1.6,1.6,86,0.04,,CLR,0.32,VWS V12.08,2013-01-30 22:05:00,
2013-01-30 17:10:00,63.0,58.7,29.51,SSE,158,3.4,3.4,86,0.04,,CLR,0.32,VWS V12.08,2013-01-30 22:10:00,
2013-01-30 17:15:00,62.8,58.5,29.51,West,270,0.0,3.4,86,0.06,,CLR,0.35,VWS V12.08,2013-01-30 22:15:00,
2013-01-30 17:20:00,62.8,58.5,29.49,NNE,22,2.7,2.7,86,0.06,,CLR,0.35,VWS V12.08,2013-01-30 22:20:00,
2013-01-30 17:25:00,62.6,58.7,29.50,NNW,338,0.0,2.7,87,0.04,,CLR,0.35,VWS V12.08,2013-01-30 22:25:00,
2013-01-30 17:30:00,62.6,58.7,29.49,ENE,68,0.0,2.7,87,0.09,,CLR,0.39,VWS V12.08,2013-01-30 22:30:00,
2013-01-30 17:35:00,62.4,58.5,29.49,NE,45,2.9,2.9,87,0.11,,CLR,0.41,VWS V12.08,2013-01-30 22:35:00,
2013-01-30 17:40:00,62.2,58.3,29.47,NE,45,5.4,5.4,87,0.13,,CLR,0.43,VWS V12.08,2013-01-30 22:40:00,
2013-01-30 17:45:00,62.2,58.3,29.45,NE,45,4.5,5.4,87,0.13,,CLR,0.43,VWS V12.08,2013-01-30 22:45:00,
2013-01-30 17:50:00,62.2,58.7,29.47,SE,135,1.8,6.0,88,0.15,,CLR,0.45,VWS V12.08,2013-01-30 22:50:00,
2013-01-30 17:55:00,62.2,58.7,29.46,South,180,5.6,6.0,88,0.15,,CLR,0.45,VWS V12.08,2013-01-30 22:55:00,
2013-01-30 18:00:00,62.2,58.7,29.46,NE,45,0.0,0.0,88,0.17,,CLR,0.50,VWS V12.08,2013-01-30 23:00:00,
2013-01-30 18:05:00,62.2,58.7,29.47,WSW,248,0.0,0.0,88,0.22,,CLR,0.54,VWS V12.08,2013-01-30 23:05:00,
2013-01-30 18:10:00,62.2,58.7,29.44,SE,135,4.3,4.3,88,0.24,,CLR,0.56,VWS V12.08,2013-01-30 23:10:00,
2013-01-30 18:15:00,62.2,58.7,29.47,SSW,202,0.0,4.3,88,0.26,,CLR,0.61,VWS V12.08,2013-01-30 23:15:00,
2013-01-30 18:20:00,62.4,58.8,29.47,North,0,0.0,0.0,88,0.30,,CLR,0.65,VWS V12.08,2013-01-30 23:20:00,
2013-01-30 18:25:00,62.4,58.8,29.48,NNW,338,0.0,1.8,88,0.35,,CLR,0.69,VWS V12.08,2013-01-30 23:25:00,
2013-01-30 18:30:00,62.2,58.7,29.48,SE,135,0.0,1.8,88,0.32,,CLR,0.73,VWS V12.08,2013-01-30 23:30:00,
2013-01-30 18:35:00,62.2,58.7,29.48,South,180,3.4,5.4,88,0.35,,CLR,0.76,VWS V12.08,2013-01-30 23:35:00,
2013-01-30 18:40:00,62.2,58.7,29.48,ENE,68,0.0,0.0,88,0.37,,CLR,0.80,VWS V12.08,2013-01-30 23:40:00,
2013-01-30 18:45:00,62.1,58.5,29.48,South,180,0.0,0.0,88,0.37,,CLR,0.80,VWS V12.08,2013-01-30 23:45:00,
2013-01-30 18:50:00,61.7,58.1,29.47,South,180,2.5,4.0,88,0.41,,CLR,0.86,VWS V12.08,2013-01-30 23:50:00,
2013-01-30 18:55:00,61.5,57.9,29.48,South,180,4.0,4.0,88,0.41,,CLR,0.86,VWS V12.08,2013-01-30 23:55:00,
2013-01-30 19:00:00,61.3,57.8,29.47,East,90,0.0,0.0,88,0.37,,CLR,0.91,VWS V12.08,2013-01-31 00:00:00,
2013-01-30 19:05:00,61.2,57.6,29.47,ESE,112,2.7,3.4,88,0.37,,CLR,0.95,VWS V12.08,2013-01-31 00:05:00,
2013-01-30 19:10:00,61.0,57.4,29.46,SE,135,0.4,3.4,88,0.37,,CLR,0.95,VWS V12.08,2013-01-31 00:10:00,
2013-01-30 19:15:00,61.0,57.4,29.47,SSW,202,6.9,6.9,88,0.35,,CLR,0.97,VWS V12.08,2013-01-31 00:15:00,
2013-01-30 19:20:00,60.6,57.0,29.47,ESE,112,0.7,1.6,88,0.32,,CLR,0.99,VWS V12.08,2013-01-31 00:20:00,
2013-01-30 19:25:00,60.6,57.0,29.45,ESE,112,0.0,1.6,88,0.35,,CLR,1.04,VWS V12.08,2013-01-31 00:25:00,
2013-01-30 19:30:00,60.4,56.9,29.44,SE,135,0.0,2.7,88,0.28,,CLR,1.04,VWS V12.08,2013-01-31 00:30:00,
2013-01-30 19:35:00,60.4,56.9,29.44,ESE,112,0.0,2.7,88,0.30,,CLR,1.06,VWS V12.08,2013-01-31 00:35:00,
2013-01-30 19:40:00,60.3,56.7,29.45,SE,135,0.0,0.0,88,0.28,,CLR,1.08,VWS V12.08,2013-01-31 00:40:00,
2013-01-30 19:45:00,60.1,56.5,29.46,SE,135,0.0,0.0,88,0.26,,CLR,1.08,VWS V12.08,2013-01-31 00:45:00,
2013-01-30 19:50:00,60.1,56.5,29.47,SE,135,0.9,7.4,88,0.24,,CLR,1.10,VWS V12.08,2013-01-31 00:50:00,
2013-01-30 19:55:00,60.1,56.5,29.47,SSE,158,0.9,7.4,88,0.24,,CLR,1.10,VWS V12.08,2013-01-31 00:55:00,
2013-01-30 20:00:00,59.9,56.3,29.45,SSE,158,0.0,0.0,88,0.17,,CLR,1.10,VWS V12.08,2013-01-31 01:00:00,
2013-01-30 20:05:00,59.7,56.2,29.45,SSW,202,2.7,2.7,88,0.19,,CLR,1.17,VWS V12.08,2013-01-31 01:05:00,
2013-01-30 20:10:00,59.7,56.2,29.44,South,180,0.0,2.7,88,0.19,,CLR,1.17,VWS V12.08,2013-01-31 01:10:00,
2013-01-30 20:15:00,59.7,56.2,29.44,SE,135,0.0,2.7,88,0.19,,CLR,1.17,VWS V12.08,2013-01-31 01:15:00,
2013-01-30 20:20:00,59.5,56.0,29.44,SW,225,0.0,0.0,88,0.17,,CLR,1.17,VWS V12.08,2013-01-31 01:20:00,
2013-01-30 20:25:00,59.5,56.0,29.43,SE,135,0.0,0.0,88,0.13,,CLR,1.17,VWS V12.08,2013-01-31 01:25:00,
2013-01-30 20:30:00,59.5,56.0,29.43,SE,135,0.0,0.0,88,0.11,,CLR,1.17,VWS V12.08,2013-01-31 01:30:00,
2013-01-30 20:35:00,59.4,55.8,29.44,SE,135,3.8,3.8,88,0.13,,CLR,1.19,VWS V12.08,2013-01-31 01:35:00,
2013-01-30 20:40:00,59.4,55.8,29.45,SSE,158,0.9,0.9,88,0.13,,CLR,1.21,VWS V12.08,2013-01-31 01:40:00,
2013-01-30 20:45:00,59.4,55.8,29.45,SSE,158,0.9,0.9,88,0.13,,CLR,1.21,VWS V12.08,2013-01-31 01:45:00,
2013-01-30 20:50:00,59.4,55.8,29.45,South,180,0.0,3.8,88,0.11,,CLR,1.21,VWS V12.08,2013-01-31 01:50:00,
2013-01-30 20:55:00,59.4,55.8,29.45,NNW,338,1.6,3.8,88,0.11,,CLR,1.21,VWS V12.08,2013-01-31 01:55:00,
2013-01-30 21:00:00,59.4,55.8,29.45,SSE,158,0.0,0.0,88,0.11,,CLR,1.21,VWS V12.08,2013-01-31 02:00:00,
2013-01-30 21:05:00,59.4,55.8,29.48,SSE,158,0.0,0.0,88,0.06,,CLR,1.21,VWS V12.08,2013-01-31 02:05:00,
2013-01-30 21:10:00,59.2,55.6,29.47,SSE,158,0.0,0.0,88,0.04,,CLR,1.21,VWS V12.08,2013-01-31 02:10:00,
2013-01-30 21:15:00,58.6,54.8,29.49,WSW,248,0.0,0.0,87,0.11,,CLR,1.28,VWS V12.08,2013-01-31 02:15:00,
2013-01-30 21:20:00,57.6,53.7,29.50,WSW,248,0.0,0.0,87,0.13,,CLR,1.30,VWS V12.08,2013-01-31 02:20:00,
2013-01-30 21:25:00,57.0,53.2,29.47,East,90,0.0,0.0,87,0.15,,CLR,1.32,VWS V12.08,2013-01-31 02:25:00,
2013-01-30 21:30:00,56.8,53.0,29.48,WSW,248,0.0,0.0,87,0.13,,CLR,1.32,VWS V12.08,2013-01-31 02:30:00,
2013-01-30 21:35:00,56.3,52.5,29.48,WSW,248,0.0,0.0,87,0.15,,CLR,1.34,VWS V12.08,2013-01-31 02:35:00,
2013-01-30 21:41:00,56.3,52.5,29.48,WSW,248,0.0,0.0,87,0.13,,CLR,1.34,VWS V12.08,2013-01-31 02:41:00,
2013-01-30 21:46:00,55.9,52.1,29.48,WSW,248,0.0,0.0,87,0.13,,CLR,1.34,VWS V12.08,2013-01-31 02:46:00,
2013-01-30 21:51:00,55.6,51.8,29.49,SSW,202,0.0,0.0,87,0.13,,CLR,1.34,VWS V12.08,2013-01-31 02:51:00,
2013-01-30 21:56:00,55.6,51.8,29.49,SSW,202,0.0,0.0,87,0.13,,CLR,1.34,VWS V12.08,2013-01-31 02:56:00,
2013-01-30 22:01:00,55.0,51.2,29.49,SSW,202,0.0,0.0,87,0.13,,CLR,1.34,VWS V12.08,2013-01-31 03:01:00,
2013-01-30 22:06:00,54.7,50.9,29.49,ESE,112,0.0,0.0,87,0.15,,CLR,1.36,VWS V12.08,2013-01-31 03:06:00,
2013-01-30 22:11:00,54.5,50.7,29.50,SSE,158,5.1,5.1,87,0.15,,CLR,1.36,VWS V12.08,2013-01-31 03:11:00,
2013-01-30 22:16:00,54.5,50.7,29.50,SSE,158,5.1,5.1,87,0.09,,CLR,1.36,VWS V12.08,2013-01-31 03:16:00,
2013-01-30 22:21:00,54.1,50.0,29.50,ESE,112,6.5,6.5,86,0.04,,CLR,1.36,VWS V12.08,2013-01-31 03:21:00,
2013-01-30 22:26:00,54.1,50.0,29.50,ESE,112,6.5,6.5,86,0.04,,CLR,1.36,VWS V12.08,2013-01-31 03:26:00,
2013-01-30 22:31:00,53.4,48.1,29.49,SW,225,7.8,12.8,82,0.04,,CLR,1.38,VWS V12.08,2013-01-31 03:31:00,
2013-01-30 22:36:00,53.2,47.6,29.49,ESE,112,0.0,12.8,81,0.04,,CLR,1.38,VWS V12.08,2013-01-31 03:36:00,
2013-01-30 22:41:00,53.1,47.4,29.47,SSW,202,0.0,0.0,81,0.04,,CLR,1.38,VWS V12.08,2013-01-31 03:41:00,
2013-01-30 22:46:00,52.9,47.2,29.47,SSW,202,0.0,0.0,81,0.04,,CLR,1.38,VWS V12.08,2013-01-31 03:46:00,
2013-01-30 22:51:00,52.5,46.9,29.47,South,180,0.0,0.0,81,0.04,,CLR,1.38,VWS V12.08,2013-01-31 03:51:00,
2013-01-30 22:56:00,52.3,46.7,29.47,SW,225,0.7,0.7,81,0.04,,CLR,1.38,VWS V12.08,2013-01-31 03:56:00,
2013-01-30 23:01:00,52.2,46.5,29.50,SW,225,1.6,1.6,81,0.04,,CLR,1.38,VWS V12.08,2013-01-31 04:01:00,
2013-01-30 23:06:00,52.2,46.5,29.51,South,180,0.0,1.6,81,0.02,,CLR,1.38,VWS V12.08,2013-01-31 04:06:00,
2013-01-30 23:11:00,52.0,46.3,29.50,SE,135,0.9,1.6,81,0.02,,CLR,1.38,VWS V12.08,2013-01-31 04:11:00,
2013-01-30 23:16:00,52.0,46.3,29.49,South,180,0.0,1.6,81,0.02,,CLR,1.38,VWS V12.08,2013-01-31 04:16:00,
2013-01-30 23:21:00,52.0,46.3,29.48,SSE,158,4.0,4.0,81,0.02,,CLR,1.38,VWS V12.08,2013-01-31 04:21:00,
2013-01-30 23:26:00,51.8,46.5,29.52,SSE,158,3.1,4.0,82,0.02,,CLR,1.38,VWS V12.08,2013-01-31 04:26:00,
2013-01-30 23:31:00,51.6,46.6,29.51,SSW,202,6.3,6.3,83,0.00,,CLR,1.38,VWS V12.08,2013-01-31 04:31:00,
2013-01-30 23:36:00,51.6,46.6,29.48,East,90,0.0,6.3,83,0.00,,CLR,1.38,VWS V12.08,2013-01-31 04:36:00,
2013-01-30 23:41:00,51.6,46.6,29.48,SE,135,0.0,0.0,83,0.00,,CLR,1.38,VWS V12.08,2013-01-31 04:41:00,
2013-01-30 23:46:00,51.1,45.8,29.49,South,180,0.0,0.4,82,0.00,,CLR,1.38,VWS V12.08,2013-01-31 04:46:00,
2013-01-30 23:51:00,51.1,45.8,29.48,East,90,1.1,2.7,82,0.00,,CLR,1.38,VWS V12.08,2013-01-31 04:51:00,
2013-01-30 23:56:00,50.9,45.6,29.48,SE,135,0.0,2.7,82,0.00,,CLR,1.38,VWS V12.08,2013-01-31 04:56:00,